EW6866 Weather Reports


Display with metric or nautical units.
time (UTC)temp
F
wind
direction
speed
MPH
gust
MPH
rain 1hr
in
rain 24hr
in
rain mn
in
humidity
%
barometer
mb
20260903183004 96 162 1.0 4.0 0.00 0.00 0.00 66 1014.8
20260903181504 95 174 1.0 5.0 0.00 0.00 0.00 67 1014.8
20260903180004 95 198 1.0 7.0 0.00 0.00 0.00 68 1015.0
20260903174525 95 223 1.0 5.0 0.00 0.00 0.00 69 1015.3
20260903173004 94 216 1.0 5.0 0.00 0.00 0.00 70 1015.3
20260903171504 94 163 1.0 4.0 0.00 0.00 0.00 72 1015.5
20260903170004 94 158 1.0 5.0 0.00 0.00 0.00 71 1015.7
20260903164525 94 174 0.0 4.0 0.00 0.00 0.00 71 1015.8
20260903163004 93 186 1.0 3.0 0.00 0.00 0.00 73 1015.9
20260903161504 92 198 1.0 5.0 0.00 0.00 0.00 72 1015.9
20260903160025 92 247 1.0 5.0 0.00 0.00 0.00 75 1016.0
20260903154504 91 219 1.0 5.0 0.00 0.00 0.00 75 1016.3
20260903153004 90 186 1.0 3.0 0.00 0.00 0.00 76 1016.5
20260903151525 90 280 0.0 5.0 0.00 0.00 0.00 78 1016.5
20260903150004 88 159 0.0 3.0 0.00 0.00 0.00 80 1016.4
20260903144503 87 174 0.0 2.0 0.00 0.00 0.00 84 1016.3
20260903143004 86 197 0.0 4.0 0.00 0.00 0.00 83 1016.4
20260903141504 85 181 0.0 3.0 0.00 0.00 0.00 84 1016.5
20260903140004 84 187 0.0 2.0 0.00 0.00 0.00 86 1016.2
20260903134504 83 169 0.0 4.0 0.00 0.00 0.00 87 1016.2
20260903133004 82 243 0.0 3.0 0.00 0.00 0.00 89 1016.2
20260903131503 81 159 0.0 3.0 0.00 0.00 0.00 91 1016.4
20260903130025 80 178 0.0 2.0 0.00 0.00 0.00 93 1016.5
20260903124504 79 160 0.0 3.0 0.00 0.00 0.00 95 1016.5
20260903123004 79 178 0.0 2.0 0.00 0.00 0.00 97 1016.7
20260903121504 78 141 0.0 1.0 0.00 0.00 0.00 98 1016.7
20260903120005 77 0 0.0 0.0 0.00 0.00 0.00 98 1016.7
20260903114503 76 0 0.0 0.0 0.00 0.00 0.00 98 1016.6
20260903113004 76 0 0.0 0.0 0.00 0.00 0.00 98 1016.4
20260903111504 76 0 0.0 0.0 0.00 0.00 0.00 98 1016.2
20260903110003 76 0 0.0 0.0 0.00 0.00 0.00 98 1016.0
20260903104504 75 0 0.0 0.0 0.00 0.00 0.00 98 1015.7
20260903103004 76 0 0.0 0.0 0.00 0.00 0.00 98 1015.6
20260903101503 75 0 0.0 0.0 0.00 0.00 0.00 98 1015.6
20260903100004 75 0 0.0 0.0 0.00 0.00 0.00 97 1015.6
20260903094503 76 0 0.0 0.0 0.00 0.00 0.00 97 1015.4
20260903093003 76 0 0.0 0.0 0.00 0.00 0.00 98 1015.5
20260903091504 76 0 0.0 0.0 0.00 0.00 0.00 98 1015.4
20260903090024 76 0 0.0 0.0 0.00 0.00 0.00 97 1015.2
20260903084503 76 0 0.0 0.0 0.00 0.00 0.00 97 1015.2
20260903083004 76 0 0.0 0.0 0.00 0.00 0.00 97 1015.2
20260903081503 76 0 0.0 0.0 0.00 0.00 0.00 97 1015.2
20260903080004 76 0 0.0 0.0 0.00 0.00 0.00 97 1015.2
20260903074505 77 0 0.0 0.0 0.00 0.00 0.00 97 1015.1
20260903073006 77 0 0.0 0.0 0.00 0.00 0.00 97 1015.4
20260903071505 77 0 0.0 0.0 0.00 0.00 0.00 97 1015.1
20260903070005 77 0 0.0 0.0 0.00 0.00 0.00 97 1015.3
20260903064506 78 0 0.0 0.0 0.00 0.00 0.00 97 1015.3
20260903063005 78 0 0.0 0.0 0.00 0.00 0.00 97 1015.4
20260903061505 78 0 0.0 0.0 0.00 0.00 0.00 97 1015.5
20260903060005 78 0 0.0 0.0 0.00 0.00 0.00 97 1015.5
20260903054527 78 0 0.0 0.0 0.00 0.00 0.00 96 1015.5
20260903053005 79 0 0.0 0.0 0.00 0.00 0.00 97 1015.4
20260903051505 79 0 0.0 0.0 0.00 0.00 0.00 97 1015.6
20260903050005 79 0 0.0 0.0 0.00 0.00 0.00 97 1015.8
20260903044526 79 0 0.0 0.0 0.00 0.00 0.00 97 1015.7
20260903043005 79 0 0.0 0.0 0.00 0.00 0.00 96 1015.8
20260903041505 80 0 0.0 0.0 0.00 0.00 0.00 97 1015.8
20260903040008 80 0 0.0 0.0 0.00 0.00 0.00 96 1015.7
20260903034505 80 0 0.0 0.0 0.00 0.00 0.00 96 1015.6
20260903033005 80 0 0.0 0.0 0.00 0.00 0.00 96 1015.7
20260903031505 80 0 0.0 0.0 0.00 0.00 0.00 96 1015.5
20260903030005 80 0 0.0 0.0 0.00 0.00 0.00 95 1015.6
20260903024505 80 0 0.0 0.0 0.00 0.00 0.00 95 1015.7
20260903023004 80 0 0.0 0.0 0.00 0.00 0.00 95 1016.0
20260903021504 80 0 0.0 0.0 0.00 0.00 0.00 94 1016.1
20260903020005 81 0 0.0 0.0 0.00 0.00 0.00 94 1016.2
20260903014504 81 0 0.0 0.0 0.00 0.00 0.00 93 1016.2
20260903013004 81 0 0.0 0.0 0.00 0.00 0.00 93 1016.1
20260903011505 81 0 0.0 0.0 0.00 0.00 0.00 92 1016.1
20260903010004 82 0 0.0 0.0 0.00 0.00 0.00 91 1015.5
20260903004504 82 77 0.0 1.0 0.00 0.00 0.00 90 1015.0
20260903003005 83 66 0.0 1.0 0.00 0.00 0.00 90 1015.0
20260903001504 83 0 0.0 0.0 0.00 0.00 0.00 89 1015.2
20260903000004 84 0 0.0 0.0 0.00 0.00 0.00 88 1015.7
20260902234505 84 65 0.0 1.0 0.00 0.00 0.00 88 1015.9
20260902233026 84 79 0.0 1.0 0.00 0.00 0.00 87 1016.1
20260902231525 85 63 0.0 1.0 0.00 0.00 0.00 87 1016.4
20260902230005 85 71 0.0 1.0 0.00 0.00 0.00 86 1016.0
20260902224505 86 81 0.0 2.0 0.00 0.00 0.00 84 1015.9
20260902223025 87 59 0.0 3.0 0.00 0.00 0.00 82 1016.0
20260902221504 87 59 1.0 2.0 0.00 0.00 0.00 82 1015.8
20260902220005 88 60 1.0 3.0 0.00 0.00 0.00 80 1015.8
20260902214505 89 52 0.0 2.0 0.00 0.00 0.00 80 1015.9
20260902213004 90 41 0.0 2.0 0.00 0.00 0.00 79 1016.0
20260902211504 91 46 0.0 2.0 0.00 0.00 0.00 77 1015.8
20260902210004 91 56 1.0 4.0 0.00 0.00 0.00 77 1015.3
20260902204505 92 60 0.0 2.0 0.00 0.00 0.00 77 1014.9
20260902203025 93 62 0.0 1.0 0.00 0.00 0.00 74 1014.9
20260902201505 96 273 0.0 1.0 0.00 0.00 0.00 70 1015.0
20260902200004 98 267 0.0 4.0 0.00 0.00 0.00 65 1015.1
20260902194505 97 109 0.0 1.0 0.00 0.00 0.00 57 1015.3
20260902193004 97 59 0.0 1.0 0.00 0.00 0.00 60 1015.5
20260902191504 98 85 0.0 1.0 0.00 0.00 0.00 58 1015.6
20260902190004 98 96 0.0 2.0 0.00 0.00 0.00 58 1015.8
20260902184505 98 138 0.0 2.0 0.00 0.00 0.00 61 1015.7